Regional Weather Roundup
Issued by NWS

Home | Current Version | Previous Version | Graphics & Text | Print | Product List | Glossary On
Versions: 1 2 3 4 5 6 7 8 9 10 11 12 13 14 15 16 17 18 19 20 21 22 23 24 25 26 27 28 29 30 31 32 33 34 35 36 37 38 39 40 41 42 43 44 45 46 47 48 49 50
000
ASUS43 KLSX 301959
RWRMO

WEATHER SUMMARY FOR MISSOURI
NATIONAL WEATHER SERVICE SPRINGFIELD MO
300 PM CDT THU OCT 30 2014

NOTE: "FAIR" INDICATES FEW OR NO CLOUDS BELOW 12,000 FEET WITH NO
       SIGNIFICANT WEATHER AND/OR OBSTRUCTIONS TO VISIBILITY.
       CURRENT SKY AND/OR WEATHER CONDITIONS ARE NOT AVAILABLE FOR
       CHILLICOTHE AND FARMINGTON.

MOZ001>031-035>038-043-044-053-054-302100-
...NORTHERN AND WESTERN MISSOURI...

CITY           SKY/WX    TMP DP  RH WIND       PRES   REMARKS
KANSAS CTY INT SUNNY     66  41  40 N22G30    30.01S
KANSAS C DTWN  SUNNY     68  39  34 NW15G23   29.99F
LEE`S SUMMIT   SUNNY     67  38  34 NW17G29   30.00S
ST JOSEPH      SUNNY     67  41  38 NW18G28   30.02S
CHILLICOTHE      N/A     65  42  43 NW7       29.99S
KIRKSVILLE     SUNNY     62  43  49 CALM      29.97F

$$
MOZ066>068-077>081-088>096-101>105-302100-
...SOUTHWEST MISSOURI...

CITY           SKY/WX    TMP DP  RH WIND       PRES   REMARKS
SPRINGFIELD    MOSUNNY   65  43  44 W16G26    29.99S
JOPLIN         SUNNY     69  43  38 NW14G20   30.03F

$$
MOZ032>034-039>042-045>050-055>058-069>072-302100-
...CENTRAL MISSOURI...

CITY           SKY/WX    TMP DP  RH WIND       PRES   REMARKS
COLUMBIA       MOSUNNY   56  49  77 SW9       29.99R
JEFFERSON CITY PTSUNNY   52  47  83 W8        30.00R
ROLLA          CLOUDY    53  45  74 VRB5      30.02R
SEDALIA        SUNNY     64  46  52 W10G16    29.98F
OSAGE BEACH    PTSUNNY   54  46  76 SE8       29.98F

$$
MOZ051-052-059>065-302100-
...EAST CENTRAL MISSOURI...

CITY           SKY/WX    TMP DP  RH WIND       PRES   REMARKS
ST LOUIS INTL  CLOUDY    60  39  45 CALM      30.03F
SPIRIT OF STL  LGT RAIN  57  42  57 CALM      30.02F
ST CHARLES     CLOUDY    55  45  68 SE13      30.00F

$$
MOZ072>076-082>087-097>100-106>115-302100-
...SOUTH CENTRAL AND SOUTHEAST MISSOURI...

CITY           SKY/WX    TMP DP  RH WIND       PRES   REMARKS
CAPE GIRARDEAU MOSUNNY   62  40  44 SW5       30.05F
FARMINGTON     CLOUDY    61  39  44 S5        30.06S
POPLAR BLUFF   MOSUNNY   63  39  41 SW6       30.04F
WEST PLAINS    CLOUDY    59  40  49 S7        30.01F

$$



USA.gov is the U.S. government's official web portal to all federal, state and local government web resources and services.